Waco, TX

7:21 PM CST on November 19, 2019 (GMT -0600)
Waco Regional

Weather History for KACT - October, 2019

Change the Weather History Date:

Sunday, October 13, 2019

  Actual Average Record
Temperature  
Mean Temperature 65 °F 69 °F  
Max Temperature 73 °F 81 °F 96 °F (1991)
Min Temperature 57 °F 57 °F 41 °F (1987)
Degree Days  
Heating Degree Days 0 1  
Month to date heating degree days 15 13  
Since 1 July heating degree days 15 19  
Cooling Degree Days 0 5  
Month to date cooling degree days 159 89  
Year to date cooling degree days 3029 2683  
Growing Degree Days 15 (Base 50)    
Moisture  
Dew Point 48 °F    
Average Humidity 54    
Maximum Humidity 72    
Minimum Humidity 35    
Precipitation  
Precipitation T in 0.14 in 2.98 in (2014)
Month to date precipitation 2.27 1.60  
Year to date precipitation 29.93 26.82  
Snow  
Snow 0.00 in 0.00 in 0.00 in ()
Month to date snowfall 0.0 0.0  
Since 1 July snowfall 0.0 0.0  
Since 1 September snowfall 0.0 0.0  
Snow Depth 0.00 in    
Sea Level Pressure  
Sea Level Pressure 30.01 in    
Wind  
Wind Speed 7 mph (SSE)    
Max Wind Speed 14 mph    
Max Gust Speed 17 mph    
Visibility 10 miles    
Events Rain    
T = Trace of Precipitation, MM = Missing Value Source: NWS Daily Summary

Daily Weather History Graph

Daily Weather History Graph

Search for Another Location

Airport or City:

Astronomy

Oct. 13, 2019 Rise Set
Actual Time 7:30 AM CDT 6:59 PM CDT
Civil Twilight 7:06 AM CDT 7:23 PM CDT
Nautical Twilight 6:37 AM CDT 7:52 PM CDT
Astronomical Twilight 6:09 AM CDT 8:20 PM CDT
Moon 7:19 PM CDT (10/13) 7:11 AM CDT (10/13)
Length of Visible Light 12h 17m
Length of Day
11h 28m
Full, 100% of the Moon is Illuminated
Oct 13
Full
Oct 13
Full
Oct 21
Last Quarter
Oct 27
New
Nov 4
First Quarter

Hourly Weather History & Observations

Time (CDT) Temp. Dew Point Humidity Pressure Visibility Wind Dir Wind Speed Gust Speed Precip Events Conditions
12:51 AM 59.0 °F 48.0 °F 67% 30.03 in 10.0 mi South 3.5 mph - N/A   Clear
1:51 AM 62.1 °F 39.0 °F 43% 30.01 in 10.0 mi South 11.5 mph - N/A   Partly Cloudy
2:51 AM 57.0 °F 48.9 °F 74% 30.03 in 10.0 mi SW 5.8 mph - 0.00 in Rain Light Rain
3:51 AM 57.0 °F 46.9 °F 69% 30.04 in 10.0 mi SW 4.6 mph - 0.00 in Rain Light Rain
4:51 AM 57.9 °F 46.0 °F 65% 30.04 in 10.0 mi SSW 5.8 mph - 0.00 in   Overcast
5:51 AM 59.0 °F 45.0 °F 60% 30.02 in 10.0 mi South 8.1 mph - N/A   Overcast
6:51 AM 59.0 °F 46.9 °F 64% 30.03 in 10.0 mi SSW 3.5 mph - N/A   Overcast
7:51 AM 59.0 °F 48.0 °F 67% 30.04 in 10.0 mi NNE 4.6 mph - N/A   Overcast
8:51 AM 59.0 °F 50.0 °F 72% 30.06 in 10.0 mi East 3.5 mph - 0.00 in   Overcast
9:51 AM 62.1 °F 48.0 °F 60% 30.06 in 10.0 mi East 4.6 mph - N/A   Mostly Cloudy
10:51 AM 64.9 °F 45.0 °F 48% 30.07 in 10.0 mi SE 6.9 mph - N/A   Mostly Cloudy
11:51 AM 68.0 °F 44.1 °F 42% 30.06 in 10.0 mi South 10.4 mph - N/A   Partly Cloudy
12:51 PM 70.0 °F 43.0 °F 38% 30.02 in 10.0 mi SSE 9.2 mph - N/A   Clear
1:51 PM 72.0 °F 43.0 °F 35% 30.00 in 10.0 mi SSE 6.9 mph - N/A   Clear
2:51 PM 71.1 °F 43.0 °F 36% 29.97 in 10.0 mi SSE 10.4 mph - N/A   Clear
3:51 PM 72.0 °F 46.9 °F 41% 29.96 in 10.0 mi South 9.2 mph - N/A   Clear
4:51 PM 73.0 °F 48.9 °F 42% 29.95 in 10.0 mi SE 8.1 mph - N/A   Clear
6:51 PM 68.0 °F 51.1 °F 55% 29.94 in 10.0 mi ESE 6.9 mph - N/A   Clear
7:51 PM 64.9 °F 52.0 °F 63% 29.96 in 10.0 mi ESE 6.9 mph - N/A   Clear
8:51 PM 64.0 °F 52.0 °F 65% 29.97 in 10.0 mi ESE 4.6 mph - N/A   Clear
9:51 PM 64.0 °F 53.1 °F 67% 29.98 in 10.0 mi SE 4.6 mph - N/A   Clear
10:51 PM 64.9 °F 53.1 °F 65% 29.98 in 10.0 mi SSE 6.9 mph - N/A   Clear
11:51 PM 64.0 °F 54.0 °F 70% 29.98 in 10.0 mi ESE 4.6 mph - N/A   Clear